Regional Weather Roundup
Issued by NWS

Home | Current Version | Previous Version | Text Only | Print | Product List | Glossary Off
Versions: 1 2 3 4 5 6 7 8 9 10 11 12 13 14 15 16 17 18 19 20 21 22 23 24 25 26 27 28 29 30 31 32 33 34 35 36 37 38 39 40 41 42 43 44 45 46 47 48 49 50

000
ASUS44 KMEG 021100
RWRTN
TENNESSEE HOURLY STATE WEATHER ROUNDUP
NATIONAL WEATHER SERVICE MEMPHIS TN
600 AM CDT THU JUL 02 2015

TNZ002-004-019-021-049-052-054-088>092-021200-
WEST TENNESSEE

CITY           SKY/WX    TMP DP  RH WIND       PRES   REMARKS
MEMPHIS INTL   CLOUDY    78  71  79 SW13      29.92S
NWS MEMPHIS      N/A     78 N/A N/A MISG        N/A
JACKSON        CLOUDY    76  71  85 SW9       29.89R
DYERSBURG        N/A    N/A N/A N/A MISG        N/A
PARIS          MOCLDY    72  72 100 CALM      29.88R
LEXINGTON      CLEAR     73  72  94 SW6       29.88S
$$

TNZ008-025-027-028-033-062-065-066-021200-
NORTH MIDDLE TENNESSEE

CITY           SKY/WX    TMP DP  RH WIND       PRES   REMARKS
NASHVILLE      CLOUDY    72  72 100 S6        29.89F
CLARKSVILLE    TSTM      69  67  93 W5        29.91R FOG
COOKEVILLE     CLOUDY    70  70 100 S5G37     29.94F
CROSSVILLE     TSTM      67  64  90 W10       30.01R VSB 1
$$

TNZ061-075-076-078-094-096-097-021200-
SOUTH MIDDLE TENNESSEE

CITY           SKY/WX    TMP DP  RH WIND       PRES   REMARKS
FAYETTEVILLE   MOCLDY    70  68  94 S7        29.96S
TULLAHOMA      MOCLDY    70  68  94 SW7       29.96S
WINCHESTER     PTCLDY    73  70  88 VRB3      29.96F
SHELBYVILLE    PTCLDY    72  72 100 S6        29.94S
$$

TNZ017-018-042-046-047-021200-
NORTHEAST TENNESSEE

CITY           SKY/WX    TMP DP  RH WIND       PRES   REMARKS
TRI CITIES     CLOUDY    67  65  93 SW6       30.01R FOG
ELIZABETHTON   DRIZZLE   64  64 100 CALM      30.01S
$$

TNZ012-013-036-069-073-074-021200-
CENTRAL EAST TENNESSEE

CITY           SKY/WX    TMP DP  RH WIND       PRES   REMARKS
KNOXVILLE      LGT RAIN  68  65  90 SW8       29.97R
OAK RIDGE      RAIN      68  66  93 CALM      29.99R FOG
GATLINBURG     CLOUDY    64  64 100 E3        29.98R
$$

TNZ083-085-099-021200-
SOUTHEAST TENNESSEE

CITY           SKY/WX    TMP DP  RH WIND       PRES   REMARKS
CHATTANOOGA    CLOUDY    70  68  93 CALM      29.98S FOG
$$

SKY/WX REPORTED AS FAIR MEANS FEW OR NO CLOUDS BELOW
12 THOUSAND FEET.



USA.gov is the U.S. government's official web portal to all federal, state and local government web resources and services.